Theta_e
338 338 339 340 339 338 339 339 338 338 338 339 339 338 334 333 333 332 330 328 327 328 329 330 329 326 318
335 332 333 335 335 335 334 333 331 331 332 332 333 336 338 337 336 336 334 331 329 329 329 328 325 324 316
334 332 328 330 331 331 330 328 326 326 325 325 325 330 334 337 338 337 337 335 332 330 328 327 325 319 316
337 334 331 332 332 330 329 327 326 325 323 325 322 324 328 330 334 336 336 333 328 323 321 323 320 319 318
333 332 330 331 332 332 330 327 327 326 323 322 320 321 321 320 323 323 322 323 323 322 321 320 320 319 318
332 331 330 330 330 329 332 331 329 328 328 322 323 322 321 320 320 319 318 319 319 320 320 320 320 319 318
330 329 329 329 329 329 330 331 332 330 329 328 327 324 324 324 323 322 321 321 319 319 319 319 320 320 319
329 328 328 328 330 329 329 330 331 332 331 330 329 327 326 326 325 324 324 323 322 322 321 322 322 321 321
325 327 328 328 329 328 329 330 332 331 331 331 331 329 329 328 327 326 325 324 323 323 322 323 323 323 322
314 313 315 324 327 327 328 332 332 333 333 331 331 330 331 330 329 328 327 325 325 324 323 323 323 323 324
309 315 312 318 320 323 325 328 331 331 331 331 331 331 331 330 328 327 327 325 324 323 323 323 324 321 324
307 314 314 319 318 321 316 314 316 317 319 323 322 322 327 327 326 325 324 324 324 323 323 322 323 322 319
303 309 313 317 314 308 305 304 306 308 310 313 313 314 317 314 314 313 318 321 321 321 319 317 313 315 314
297 305 317 310 306 302 300 299 300 302 303 305 306 307 308 310 309 309 310 312 316 317 314 311 305 306 308
294 309 312 308 306 301 299 296 296 298 299 300 300 301 302 303 303 303 304 304 304 308 307 306 301 299 303
292 301 304 303 296 297 296 294 294 294 294 295 295 295 295 296 296 298 299 298 301 299 302 304 304 306 301
Wind_Speed
9 8 7 6 5 4 4 3 2 4 4 6 6 6 6 5 6 5 5 4 5 5 6 5 6 7 4
5 7 7 6 6 5 5 4 4 3 4 4 5 6 8 8 8 7 7 6 7 7 6 7 7 8 4
5 5 6 7 7 6 4 5 5 3 4 4 4 6 7 7 8 8 9 8 8 7 8 8 6 3 4
5 5 5 5 4 5 4 5 3 4 4 4 5 6 7 7 9 8 8 8 6 3 3 5 3 4 4
5 4 3 3 4 4 5 5 5 3 3 3 3 3 3 5 3 4 4 3 4 4 4 4 4 4 3
4 4 4 4 4 3 6 7 4 3 4 4 3 4 4 3 4 4 3 4 5 5 5 5 5 4 3
6 4 4 4 4 5 4 5 5 4 4 3 4 3 3 3 4 4 4 4 5 5 5 5 6 6 6
6 6 5 4 5 4 4 5 6 5 4 3 3 4 4 4 4 4 4 4 4 4 5 6 7 5 5
2 4 4 4 4 4 4 5 6 6 6 6 5 3 4 3 4 3 4 4 4 4 6 6 6 7 6
5 3 2 3 3 4 4 3 5 5 6 5 3 4 3 3 3 3 3 4 4 4 4 4 4 4 6
6 4 3 3 3 3 2 2 3 3 3 1 2 3 3 2 1 2 2 2 3 3 3 4 4 4 5
4 3 3 4 5 6 6 6 8 6 7 5 5 4 3 1 1 2 2 1 3 3 3 4 4 4 4
3 2 3 3 4 6 6 8 8 6 9 7 4 5 5 5 3 3 2 2 2 2 2 3 3 5 4
2 2 2 3 5 5 4 8 7 11 8 6 5 4 5 2 4 4 4 3 2 3 2 2 4 5 4
5 1 6 5 3 3 4 5 7 9 8 7 7 5 5 4 3 4 4 4 2 2 5 1 1 3 3
7 3 3 3 3 2 4 5 6 8 9 7 6 6 5 4 5 4 4 3 1 2 3 4 3 3 1
Wind_Direction
182 188 194 200 200 200 206 189 203 203 208 226 219 220 217 221 213 205 204 215 235 253 270 282 298 310 323
187 195 195 199 204 210 218 222 223 241 251 271 246 236 241 225 229 223 213 231 245 253 258 276 288 300 305
194 206 205 204 203 214 228 233 243 250 267 275 267 258 259 253 236 234 223 229 243 260 272 276 279 273 281
200 198 200 199 195 201 213 223 227 239 246 244 257 269 268 259 253 258 242 245 255 249 269 286 276 275 274
209 192 192 200 185 195 209 216 224 233 242 247 251 261 271 261 260 272 283 270 254 247 260 263 264 268 262
199 196 197 196 197 193 195 205 203 215 218 231 229 228 230 228 244 244 250 258 262 255 247 260 258 254 253
203 201 202 216 210 213 198 203 192 214 221 205 219 224 231 215 227 239 237 244 245 248 250 239 255 249 250
211 204 212 213 227 210 213 213 213 201 205 213 226 224 220 209 228 232 236 239 245 237 252 247 253 253 247
220 224 225 230 218 224 231 232 210 204 209 210 211 223 232 218 242 241 254 249 249 247 244 242 241 244 239
4 332 280 260 237 237 237 236 234 221 213 205 214 225 223 224 235 239 237 253 252 239 262 262 260 266 263
336 330 346 33 41 10 342 2 348 347 305 256 318 302 270 244 238 269 266 250 281 264 256 265 260 254 260
333 351 58 61 51 54 42 37 37 42 32 50 40 24 338 270 325 313 283 273 261 290 290 281 275 267 265
2 4 44 77 54 58 51 38 35 40 39 36 43 27 33 53 43 14 317 310 296 4 301 299 297 282 296
328 301 106 99 74 72 63 47 33 43 34 39 35 29 29 47 38 22 17 331 319 20 20 13 314 328 345
343 194 107 98 92 51 31 50 32 41 35 28 31 31 35 26 36 22 7 15 321 337 27 204 306 261 329
4 36 88 114 113 74 77 70 46 38 39 30 32 34 35 28 40 27 24 21 19 17 329 11 19 32 254